Location: Newark
(40.3820°N, 3.6624°W)
Time: 05:12:26
(UTC+00:00)

N. Korean satellite - Pass Details

Date: 18 November 2019
Orbit: 455 x 507 km, 97.2° (Epoch: 14 December)

Event Time Altitude Azimuth Distance (km) Brightness Sun altitude
Rises 05:01:24 0° 34° (NE) 2,611 10.7 -23.2°
Reaches altitude 10° 05:04:37 10° 65° (ENE) 1,713 10.1 -22.6°
Maximum altitude 05:06:14 12° 91° (E) 1,556 10.2 -22.3°
Drops below altitude 10° 05:07:50 10° 117° (ESE) 1,697 10.3 -22.0°
Sets 05:10:58 0° 148° (SSE) 2,560 10.8 -21.4°
